Location: Mohawk View
(42.7837°N, 73.7885°W)
Time: 08:32:00
(UTC+00:00)

Cosmos 1833 Rocket - Pass Details

Date: 17 June 2021
Orbit: 832 x 840 km, 71.0° (Epoch: 28 July)

Event Time Altitude Azimuth Distance (km) Brightness Sun altitude
Rises 08:33:21 0° 185° (S) 3,373 5.4 -7.1°
Reaches altitude 10° 08:35:51 10° 179° (S) 2,444 4.7 -6.7°
Maximum altitude 08:41:11 46° 107° (ESE) 1,112 3.7 -6.0°
Drops below altitude 10° 08:46:33 10° 36° (NE) 2,463 6.7 -5.2°
Sets 08:49:05 0° 30° (NNE) 3,402 7.4 -4.9°
